Regional Weather Roundup
Issued by NWS

Home | Current Version | Previous Version | Text Only | Print | Product List | Glossary On
Versions: 1 2 3 4 5 6 7 8 9 10 11 12 13 14 15 16 17 18 19 20 21 22 23 24 25 26 27 28 29 30 31 32 33 34 35 36 37 38 39 40 41 42 43 44 45 46 47 48 49 50
000
ASUS43 KMPX 301401
RWRMN
WEATHER ROUNDUP FOR MINNESOTA
NATIONAL WEATHER SERVICE TWIN CITIES/CHANHASSEN MN
900 AM CDT SUN AUG 30 2015


NOTE: "FAIR" INDICATES FEW OR NO CLOUDS BELOW 12,000 FEET WITH NO
SIGNIFICANT WEATHER AND/OR OBSTRUCTIONS TO VISIBILITY. N/A MEANS
CURRENT SKY AND/OR WEATHER CONDITIONS ARE NOT AVAILABLE.

MNZ060>063-068>070-301500-
   Twin Cities Metro

CITY           SKY/WX    TMP DP  RH WIND       PRES   REMARKS
TWIN CITIES    CLOUDY    63  59  87 S9        30.00S
ST PAUL        CLOUDY    64  61  90 S6        30.01S
CRYSTAL        CLOUDY    64  60  87 SW7       29.99
BLAINE         CLOUDY    64  63  94 S10       30.00R
LAKEVILLE      CLOUDY    61  61 100 S9        30.01F
EDEN PRAIRIE   CLOUDY    63  60  90 S8        30.00R
SOUTH ST PAUL  CLOUDY    64  61  90 S8        30.01S
LAKE ELMO      CLOUDY    63  61  94 S9        30.02S
$$
MNZ001>005-007-008-013>017-022>024-027-028-301500-
   Northwest Minnesota

CITY           SKY/WX    TMP DP  RH WIND       PRES   REMARKS
BEMIDJI        CLOUDY    64  63  94 S9        29.88S
HALLOCK        CLOUDY    66  64  94 S15       29.76S
ROSEAU         CLOUDY    66  63  88 S9        29.80S
WARROAD        CLOUDY    68  64  88 SW8       29.81S
THIEF RVR FALL PTSUNNY  N/A N/A N/A S8        29.81S
CROOKSTON      PTSUNNY   68  64  88 S13G20    29.81S
FOSSTON        MOSUNNY   66  63  88 S9        29.85F
DETROIT LAKES  SUNNY     66  63  88 S12       29.89S
MOORHEAD       SUNNY     64  63  94 S17       29.85S
PARK RAPIDS    CLOUDY    65  61  87 S9        29.91S
MAHNOMEN       FAIR      67  64  89 S8        29.86S
$$
MNZ006-009>011-018-025>026-301500-
   North Central Minnesota

CITY           SKY/WX    TMP DP  RH WIND       PRES   REMARKS
BAUDETTE       PTSUNNY   68  64  87 SW7       29.82S
FLAG ISLAND    MOSUNNY   66  64  94 S5        29.80S
INTL FALLS     CLOUDY    67  65  93 S8        29.85S
WASKISH        PTSUNNY   66  64  94 S5        29.85S
BIG FORK       CLOUDY    64  63  94 S7        29.89F
LONGVILLE      CLOUDY    64  63  94 S7        29.92S
GRAND RAPIDS     N/A     63  59  88 S8        29.93S
CRANE LAKE     CLOUDY    63  61  94 S3        29.90R
COOK           CLOUDY    64  61  88 SW3       29.91F
WALKER         CLOUDY    63  61  94 S7        29.90F
$$
MNZ012-019>021-037-301500-
   Northeast Minnesota

CITY           SKY/WX    TMP DP  RH WIND       PRES   REMARKS
DULUTH         PTSUNNY   65  61  87 SW9       29.95F
ELY            CLOUDY    63  59  88 SW8       29.92S
HIBBING        CLOUDY    64  61  90 S7        29.93F
EVELETH        CLOUDY    63  61  94 SW8       29.95S
DULUTH HARBOR  CLOUDY    66  63  88 SW12      29.94F
TWO HARBORS    CLOUDY    68  63  83 SW9       29.93S
SILVER BAY     PTSUNNY   66  63  88 SW7       29.92S
GRAND MARAIS     N/A     52  51  97 SW8       29.92F
G MARAIS ARPRT CLOUDY    61  57  88 S7        29.94F FOG
$$
MNZ029>031-032-039>041-046>048-054>057-064-301500-
   West Central Minnesota

CITY           SKY/WX    TMP DP  RH WIND       PRES   REMARKS
FERGUS FALLS   SUNNY     64  64 100 S13       29.89S FOG
WHEATON        SUNNY     63  61  94 SE12      29.90S FOG
MORRIS         SUNNY     64  63  94 S13G20    29.91S FOG
ALEXANDRIA     SUNNY     64  62  93 S10       29.95S
ELBOW LAKE     FAIR      63  62  96 S16       29.90S FOG
WADENA         SUNNY     63  61  94 S7        29.92S FOG
GLENWOOD       MOSUNNY   63  61  94 S14       29.95S FOG
APPLETON       SUNNY     64  61  88 S10       29.92S FOG
BENSON         PTSUNNY   64  61  88 S9        29.94S
ORTONVILLE     SUNNY     63  61  94 SE9       29.90F
MADISON        SUNNY     64  63  94 SE9       29.92S FOG
WILLMAR        CLOUDY    63  63 100 S6        29.98F FOG
$$
MNZ033>034-036-042>043-049>051-058-059-301500-
   Central Minnesota

CITY           SKY/WX    TMP DP  RH WIND       PRES   REMARKS
ST CLOUD       CLOUDY    61  60  97 S10       29.97S
SAUK CENTRE    CLOUDY    63  61  94 S9        29.96S
PAYNESVILLE    CLOUDY    62  60  94 SE10      29.98S
AITKIN         CLOUDY    64  59  82 S5        29.94R
PINE RIVER     CLOUDY    63  63 100 S6        29.96S
BRAINERD       CLOUDY    63  60  90 S12       29.95S
STAPLES        CLOUDY    63  61  94 S9        29.93S FOG
LONG PRAIRIE   CLOUDY    61  59  94 S7        29.96R FOG
LITTLE FALLS   CLOUDY    61  59  94 S7        29.96S
LITCHFIELD     CLOUDY    63  63 100 S7        29.99S
BUFFALO        CLOUDY    62  59  89 S8        30.00S
MAPLE LAKE     CLOUDY    62  61  96 CALM      30.00R
$$
MNZ037-044-045-052-053-301500-
   East Central Minnesota

CITY           SKY/WX    TMP DP  RH WIND       PRES   REMARKS
PRINCETON      PTSUNNY   63  61  94 S7        29.98S
MORA           CLOUDY    61  57  88 S9        29.99S
CAMBRIDGE      CLOUDY    64  55  72 S7        29.97S
RUSH CITY      CLOUDY    64  61  90 S8        29.99R
MOOSE LAKE     PTSUNNY   64  61  88 S9        29.95S
HINCKLEY       CLOUDY    64  63  94 S8        29.98S
CLOQUET        MOSUNNY   64  61  88 S8        29.95F
MCGREGOR       PTSUNNY   63  61  94 S8        29.95S
$$
MNZ071>073-080-081-089-090-097-098-301500-
   Southwest Minnesota

CITY           SKY/WX    TMP DP  RH WIND       PRES   REMARKS
MONTEVIDEO     MOSUNNY   64  64 100 S8        29.96S
GRANITE FALLS  SUNNY     63  62  96 S8        29.97F
CANBY          SUNNY     66  62  85 S5        29.94S
MARSHALL       MOSUNNY   64  57  77 S14       29.97S
REDWOOD FALLS  CLOUDY    64  61  90 S12       29.98S
OLIVIA         CLOUDY    59  55  88 S9        29.98S
PIPESTONE      FOG       63  61  94 S12       30.00S VSB 3/4
WINDOM         CLOUDY    63  61  94 SW9       30.02R
WORTHINGTON    CLOUDY    63  57  82 SW12      30.02S
JACKSON        CLOUDY    63  61  94 SW9       30.03S
TRACY          MOSUNNY   64  61  91 S15       29.98F FOG
SLAYTON        CLOUDY    61  61  99 S10G18    30.01S FOG
$$
MNZ065>067-074>077-082>085-091>093-301500-
   South Central Minnesota

CITY           SKY/WX    TMP DP  RH WIND       PRES   REMARKS
MANKATO        CLOUDY    63  57  82 SW9       30.02S
NEW ULM        CLOUDY    63  61  94 SW6       30.00S
ST JAMES       CLOUDY    64  61  88 S7        30.02S
FAIRMONT       CLOUDY    61  55  82 S9        30.03R
GLENCOE        CLOUDY    62  61  97 S8        30.00S
FARIBAULT      CLOUDY    63  61  94 S8        30.03S FOG
OWATONNA       PTSUNNY   63  61  94 S8        30.04R FOG
WASECA         FOG       59  59 100 S7        30.05R VSB 1
ALBERT LEA     CLOUDY    63  63 100 S5        30.05R FOG
$$
MNZ078>079-086>088-094>096-301500-
   Southeast Minnesota

CITY           SKY/WX    TMP DP  RH WIND       PRES   REMARKS
ROCHESTER      FOG       61  60  97 S10       30.06S VSB 1/4
RED WING       CLOUDY    64  63  94 SE3       30.02S
STANTON        CLOUDY    64  61  91 SW7       30.01S
DODGE CENTER   CLOUDY    63  61  94 SW7       30.05R FOG
WINONA         FOG       59  59 100 CALM      30.06R VSB 1/2
AUSTIN         CLOUDY    63  63 100 S6        30.05S FOG
PRESTON        CLOUDY    59  58  96 CALM      30.07S FOG
$$
ABBREVIATIONS USED IN REMARKS
   TC - TEMPERATURES IN CELSIUS
  WCI - WIND CHILL INDEX
   HX - HEAT INDEX
  VSB - VISIBILITY
$$



USA.gov is the U.S. government's official web portal to all federal, state and local government web resources and services.